User: anonymous   Login
Location: Unspecified
(0.0000°N, 0.0000°E)
Time: 20:25:50
(UTC+00:00)
Language:

ISS - Orbit

View from above orbital plane
View from above orbital plane
View from above satellite
View from above satellite

Ground track
Ground track

The orbit data is extracted from the following two-line orbital elements,

1 25544U 98067A   16206.56853633  .00001188  00000-0  24567-4 0  9990
2 25544  51.6432 231.5210 0002166  75.8395  32.8860 15.54876144 10800
Epoch (UTC): 24 July 2016 13:38:41
Eccentricity: 0.0002166
inclination: 51.6432°
perigee height: 401 km
apogee height: 404 km
right ascension of ascending node: 231.5210°
argument of perigee: 75.8395°
revolutions per day: 15.54876144
mean anomaly at epoch: 32.8860°
orbit number at epoch: 1080

The dashed part of the orbit path shows where the satellite is in the earth's shadow,  

DLR